Terminal Aerodrome Forecast
Issued by NWS St Louis, MO

Home | Current Version | Previous Version | Text Only | Print | Product List | Glossary On
Versions: 1 2 3 4 5 6 7 8 9 10 11 12 13 14 15 16 17 18 19 20 21
000
FTUS43 KLSX 251500 AAA
TAFCOU
TAF AMD
KCOU 251533Z 2516/2612 16014KT P6SM SCT035 BKN250
      TEMPO 2516/2518 -RA BKN030
     FM260400 19010KT P6SM SCT250=

USA.gov is the U.S. government's official web portal to all federal, state and local government web resources and services.